map of FEZ home
Great Circle Mapper logo
FEZ - Airport
Location
City:  Fez, Morocco
Near (Alt.):Fes
Name:Sass
ICAO:GMFF
IATA:FEZ

Details
Type:Airport (Aerodrome, Airfield)
Use:Public/Civil, International (customs port of entry)
Latitude:3355'38"N (33.927261)
Longitude:458'41"W (-4.977957)
Datum:WGS 1984
Elevation:1900 ft (579 m)
Variation:1.18W (WMM2015 magnetic declination)
0.11 annual change
Runways:1
Longest:10499 × 148 ft (3200 × 45 m), paved

Time
Time Zone:UTC+0 (DST+1)
Local Time:

Weather
METAR:GMFF 232100Z 22005KT CAVOK 28/06 Q1016 NOSIG
TAF:GMFF 231700Z 2318/2424 34008KT CAVOK= TAF GMFM 231700Z 2318/2424 32008KT CAVOK
BECMG 2402/2406 VRB03KT
TEMPO 2410/2418 14010KT 9999 SCT023 SCT100
BECMG 2420/2424 32006KT

Related Locations
Nearby:
Farthest:KKE: 12322 mi / 19830 km
Kerikeri/Bay of Islands, NZ

Find:

   beyond  
but within

Other Information
Maps:
NOTAMs:
Links:
Sources:

  
flag of Morocco   

Sectional Chart

Flight Planning
at skyvector.com

Satellite Image

Google Maps Satellite view

 

Copyright © 2004-2016 Karl L. Swartz. All rights reserved.
The Great Circle Mapper name and logo are trademarks of the Great Circle Mapper.
All other trademarks mentioned herein belong to their respective owners.
Please see credits for attibutions and further copyright information.

  Follow gcmap on Facebook Follow gcmap on Twitter Follow gcmap on Google+ GCmap on LinkedIn

hCard Microformat

Geo Microformat